User: anonymous
Location: Montr�al
(45.5000°N, 73.5830°W)
Time: 20:34:02
(UTC-04:00)
Language:

Cosmos 2369 - Orbit

View from above orbital plane
View from above orbital plane
View from above satellite
View from above satellite

Ground track
Ground track

The orbit data is extracted from the following two-line orbital elements,

1 26069U 00006A   14208.11611654 -.00000115  00000-0 -35827-4 0  3036
2 26069 070.9972 051.2286 0011472 018.7922 117.0825 14.13250575746911
Epoch (UTC): 27 July 2014 02:47:12
Eccentricity: 0.0011472
inclination: 70.9972°
perigee height: 840 km
apogee height: 856 km
right ascension of ascending node: 51.2286°
argument of perigee: 18.7922°
revolutions per day: 14.13250575
mean anomaly at epoch: 117.0825°
orbit number at epoch: 74691

The dashed part of the orbit path shows where the satellite is in the earth's shadow,  

DLR